Flag for Germany Weather past 2 weeks in Jena, Thuringia, Germany

Now
59 °F

Clear.


Feels Like: 58 °F
Forecast: 52 / 66 °F
Wind: 8 mph from South

Location: Erfurt-Bindersleben

Current Time: Sep 20, 2014 at 4:35:43 AM

Latest Report: Sep 20, 2014 at 4:20 AM


Visibility: 10 mi

Pressure: 29.95 "Hg

Humidity: 94%

Dew point: 57 °F

Location of JenaLocation

Historic Weather in Jena — Graph

°F

Jena temperature yesterday

Maximum temperature yesterday: 73 °F (at 1:50 PM)
Minimum temperature yesterday: 59 °F (at 5:50 AM)
Average temperature yesterday: 64 °F

Past Weeks' High & Low Weather Summary

 TemperatureHumidityPressure
High75 °F (Sep 5, 4:20 PM)100% (Sep 5, 3:20 AM)30.18 "Hg (Sep 5, 3:20 AM)
Low52 °F (Sep 10, 11:50 PM)50% (Sep 16, 4:20 PM)29.89 "Hg (Sep 6, 3:50 PM)
Average61 °F87%30.02 "Hg
* Reported Sep 5 3:20 AM — Sep 20 3:20 AM, Jena, Weather by CustomWeather, © 2014

Note: Actual official high and low records may vary slightly from our data, if they occured in-between our weather recording intervals... More about our weather records

Advertising

Jena weather history for previous 24 hours

 ConditionsComfort  
Time TempWeatherWind HumidityBarometerVisibility
3:20 AM
Sep 20
57 °FClear.8 mph100%29.95 "Hg10 mi
2:50 AM59 °FClear.6 mph94%29.95 "Hg10 mi
1:50 AM57 °FClear.8 mph100%29.95 "Hg10 mi
1:20 AM59 °FClear.8 mph94%29.95 "Hg10 mi
12:50 AM59 °FClear.8 mph100%29.95 "Hg10 mi
12:20 AM59 °FClear.7 mph100%29.95 "Hg10 mi
11:50 PM
Sep 19
59 °FPassing clouds.7 mph100%29.95 "HgN/A
11:20 PM61 °FPassing clouds.7 mph94%29.95 "HgN/A
10:50 PM61 °FPassing clouds.6 mph100%29.95 "HgN/A
10:20 PM63 °FPassing clouds.7 mph94%29.95 "HgN/A
9:50 PM61 °FPassing clouds.8 mph100%29.95 "HgN/A
9:20 PM61 °FPartly cloudy.6 mph100%29.95 "HgN/A
8:50 PM63 °FPartly cloudy.6 mph100%29.95 "HgN/A
8:20 PM63 °FSunny.5 mph94%29.95 "Hg10 mi
7:50 PM63 °FSunny.7 mph94%29.95 "Hg10 mi
7:20 PM63 °FSunny.3 mph94%29.92 "Hg10 mi
6:50 PM64 °FBroken clouds.8 mph88%29.92 "HgN/A
6:20 PM64 °FSprinkles. Scattered clouds.8 mph88%29.92 "HgN/A
5:50 PM63 °FThundershowers. Broken clouds.10 mph94%29.92 "HgN/A
5:20 PM63 °FThunderstorms. Partly sunny.13 mph88%29.92 "HgN/A
4:50 PM66 °FThunderstorms. Partly sunny.8 mph83%29.92 "HgN/A
4:20 PM72 °FScattered showers. Scattered clouds.6 mph69%29.92 "HgN/A
3:50 PM72 °FScattered showers. Partly sunny.7 mph69%29.92 "HgN/A
3:20 PM72 °FPartly sunny.5 mph69%29.92 "HgN/A
2:50 PM72 °FScattered clouds.2 mph73%29.92 "HgN/A
2:20 PM72 °FThunderstorms. Partly sunny.1 mph69%29.92 "HgN/A
1:50 PM73 °FScattered clouds.2 mph65%29.92 "HgN/A
1:20 PM72 °FScattered clouds.2 mph69%29.92 "HgN/A
12:50 PM70 °FScattered clouds.3 mph78%29.92 "HgN/A
12:20 PM70 °FSunny.3 mph73%29.92 "Hg10 mi
11:50 AM70 °FSunny.2 mph73%29.92 "Hg10 mi
11:20 AM68 °FSunny.3 mph78%29.92 "Hg10 mi
10:50 AM64 °FSunny.3 mph83%29.95 "Hg10 mi
10:20 AM64 °FSunny.6 mph88%29.95 "Hg10 mi
9:50 AM63 °FPartly sunny.6 mph88%29.95 "Hg6 mi
9:20 AM61 °FPartly sunny.3 mph94%29.95 "Hg5 mi
8:50 AM59 °FPartly sunny.2 mph94%29.92 "Hg5 mi
8:20 AM59 °FPartly sunny.5 mph94%29.92 "Hg4 mi
7:50 AM59 °FThundershowers. Passing clouds.7 mph94%29.92 "Hg4 mi
7:20 AM59 °FLight rain. Fog.5 mph94%29.92 "Hg3 mi
6:50 AM59 °FFog.5 mph94%29.92 "Hg3 mi
6:20 AM59 °FLight rain. Clear.3 mph94%29.92 "Hg4 mi
5:50 AM59 °FClear.3 mph94%29.92 "Hg10 mi
5:20 AM61 °FClear.3 mph88%29.92 "Hg10 mi
4:50 AM61 °FClear.1 mph88%29.92 "Hg10 mi
4:20 AM61 °FClear.No wind88%29.92 "Hg10 mi
Weather by CustomWeather, © 2014

See weather overviewHow to use our weather pages